Other Surface Observations
Issued by NWS

Current Version | Previous Version | Text Only | Print | Product List | Glossary On
Versions: 1 2 3 4 5 6 7 8 9 10 11 12 13 14 15 16 17 18 19 20 21 22 23 24 25 26 27 28 29 30 31 32 33 34 35 36 37 38 39 40 41 42 43 44 45 46 47 48 49 50
330
SXUS52 KTAE 302219
OSOTAE
OSOTAE
North Florida/South Alabama/Southwest Georgia Weather Roundup
National Weather Service Tallahassee Florida
600 PM EDT THU JUN 30 2016

Note: "fair" indicates few or no clouds below 12,000 feet with no
significant weather and/or obstructions to visibility.

!FLZ017-115-028-034-025-302300
...North Florida...

CITY           SKY/WX    TMP DP  RH WIND       PRES   REMARKS
TALLAHASSEE    CLOUDY    81  72  74 S5        29.96F
APALACHICOLA   PTSUNNY   80  76  87 S6        29.97S
PERRY          LGT RAIN  78  75  91 SE3       29.98F
CROSS CITY       N/A     79  74  84 CALM      29.98F
JACKSONVILLE   CLOUDY    82  76  81 E3        29.98F
$$

!FLZ112-006-005-002-011-302300
...Florida Panhandle...

CITY           SKY/WX    TMP DP  RH WIND       PRES   REMARKS
MARIANNA       CLOUDY    83  73  72 S10       29.95S
BONIFAY        FAIR      85  72  65 S7        29.95F HX  91
PANAMA CITY NW FAIR      81  73  76 SE8       29.95S
TYNDALL AFB    PTSUNNY   80  74  81 S7        29.96S
TYND DRONE APT NOT AVBL
DE FUNIAK SPR  FAIR      81  71  71 S5        29.96S
EGLIN AFB      PTSUNNY   83  73  70 S9        29.95S
DESTIN         PTSUNNY   84  75  74 S6        29.94F HX  92
HURLBURT       MOSUNNY   83  71  68 S8        29.94S
CRESTVIEW      PTSUNNY   86  72  62 S9        29.95F HX  92
PENSACOLA      CLOUDY    85  74  69 S10       29.93F HX  92
$$

!ALZ063-066-302300
...South Alabama...

CITY           SKY/WX    TMP DP  RH WIND       PRES   REMARKS
DOTHAN         MOSUNNY   84  73  69 S10       29.98S HX  90
OZARK CAIRNS   CLOUDY    86  74  68 S8        29.94S HX  94
FT RUCKER HELI CLOUDY    87  73  62 SW8       29.93  HX  94
RUCKER HELI 3  FAIR      85  72  65 SW10      29.96R HX  91
RUCKER HELI 2  NOT AVBL
FLORALA APT    PTSUNNY   84  73  69 VRB6      29.96F HX  90
ANDALUSIA      PTSUNNY   89  71  55 CALM      29.94S THUNDER HX  95
TROY           CLOUDY    74  71  91 E6        29.97R
EUFALA         FAIR      85  73  67 S7        29.95R HX  91
MOBILE         MOSUNNY   87  72  60 S10       29.93F HX  93
$$

!GAZ120>161-302300
...Southwest and South Central Georgia...

CITY           SKY/WX    TMP DP  RH WIND       PRES   REMARKS
THOMASVILLE      N/A     81  77  89 SW7       29.99S
BAINBRIDGE     PTSUNNY   82  73  74 CALM      29.96S
MOODY AFB      CLOUDY    81  71  71 S10       29.97S
VALDOSTA       CLOUDY    80  74  81 S9        29.98S
MOULTRIE       MOSUNNY   81  73  78 S5        29.98R
BLAKELY        CLOUDY    86  73  66 CALM      29.96R HX  93
ALBANY         CLOUDY    84  73  69 S5        29.98S HX  90
TIFTON           N/A     80  76  89 CALM      29.97S
FITZGERALD     FAIR      80  79  96 CALM      30.00R
CORDELE        FAIR      86  73  66 SW8       29.97S HX  93
AMERICUS       FAIR      82  68  61 S7        29.98S
HOMERVILLE     PTSUNNY   82  73  74 S5        29.99S
$$

!GMZ750-755-770-775-302300
...Coastal and Buoy Obs...

STATION/POSITION TIME  TEMP    WIND        PRES    VSBY  WAVE
                       AIR SEA DIR/SP/G                  HT/PER
                 (UTC) (F)     (DEG/KT/KT) (MB)    (MI)  (FT/S)
KEATON BEACH     2200   78     200/  4/  6 1014.9F
CEDAR KEY        2200   82     340/  2/  3 1015.7F
C TOWER          2200   79     190/  7/  7 1015.2F
APALACHICOLA BUO 2150   80 85   10/  2/  4 1015.4F         2/ 4
PANAMA CITY BUOY 2150   79 84  260/  4/  4 1015.0F         2/ 4
MOBILE BUOY      2200   79 85  190/  8/ 10 1013.8F
ORANGE BCH AL BU 2150   81 87              1014.1S         1/ 3
$$




USA.gov is the U.S. government's official web portal to all federal, state and local government web resources and services.